TimeCDT,TemperatureF,Dew PointF,Humidity,Sea Level PressureIn,VisibilityMPH,Wind Direction,Wind SpeedMPH,Gust SpeedMPH,PrecipitationIn,Events,Conditions,WindDirDegrees,DateUTC
12:15 AM,79.9,76.3,89,29.98,10.0,South,9.2,-,N/A,,Clear,170,2013-06-10 05:15:00
12:35 AM,80.6,76.5,87,29.97,10.0,South,9.2,-,N/A,,Clear,170,2013-06-10 05:35:00
12:55 AM,80.6,76.3,87,29.96,10.0,SSE,6.9,-,N/A,Rain,Light Rain,160,2013-06-10 05:55:00
1:15 AM,79.9,76.1,88,29.96,10.0,SSE,4.6,-,N/A,,Light Drizzle,150,2013-06-10 06:15:00
1:35 AM,79.7,76.1,89,29.96,10.0,Calm,Calm,-,N/A,Rain,Light Rain,0,2013-06-10 06:35:00
1:55 AM,79.7,76.5,90,29.96,10.0,ESE,3.5,-,N/A,,Scattered Clouds,120,2013-06-10 06:55:00
2:15 AM,78.8,76.1,91,29.97,10.0,Calm,Calm,-,N/A,Rain,Light Rain,0,2013-06-10 07:15:00
2:35 AM,78.8,76.1,91,29.97,10.0,Calm,Calm,-,N/A,,Scattered Clouds,0,2013-06-10 07:35:00
2:55 AM,79.2,75.9,90,29.97,10.0,South,3.5,-,N/A,,Clear,170,2013-06-10 07:55:00
3:15 AM,79.0,76.3,91,29.97,10.0,Calm,Calm,-,N/A,,Scattered Clouds,0,2013-06-10 08:15:00
3:35 AM,79.9,77.0,91,29.97,10.0,South,6.9,-,N/A,,Mostly Cloudy,180,2013-06-10 08:35:00
3:55 AM,80.8,77.5,90,29.97,10.0,SSE,5.8,-,N/A,,Mostly Cloudy,160,2013-06-10 08:55:00
4:15 AM,80.6,77.5,90,29.97,10.0,South,6.9,-,N/A,,Scattered Clouds,170,2013-06-10 09:15:00
4:35 AM,80.6,77.9,91,29.98,7.0,South,5.8,-,N/A,,Scattered Clouds,170,2013-06-10 09:35:00
4:55 AM,80.6,77.7,91,29.98,10.0,South,5.8,-,N/A,,Light Drizzle,180,2013-06-10 09:55:00
5:15 AM,80.6,77.9,91,29.98,7.0,South,5.8,-,N/A,,Mostly Cloudy,180,2013-06-10 10:15:00
5:35 AM,79.9,77.5,93,29.98,7.0,South,4.6,-,N/A,,Mostly Cloudy,180,2013-06-10 10:35:00
5:55 AM,79.7,77.4,93,29.98,7.0,South,3.5,-,N/A,,Mostly Cloudy,190,2013-06-10 10:55:00
6:15 AM,79.2,77.0,93,29.99,7.0,SSW,4.6,-,N/A,Thunderstorm,Overcast,200,2013-06-10 11:15:00
6:35 AM,79.9,77.4,92,29.99,7.0,SSW,5.8,-,N/A,,Overcast,200,2013-06-10 11:35:00
6:55 AM,80.8,77.9,91,29.99,7.0,SSW,5.8,-,N/A,,Scattered Clouds,200,2013-06-10 11:55:00
7:15 AM,81.7,78.1,89,29.99,7.0,South,6.9,-,N/A,,Scattered Clouds,180,2013-06-10 12:15:00
7:35 AM,82.6,78.4,87,30.00,7.0,South,5.8,-,N/A,,Scattered Clouds,190,2013-06-10 12:35:00
7:55 AM,83.8,78.8,85,30.00,7.0,South,5.8,-,N/A,,Scattered Clouds,190,2013-06-10 12:55:00
8:15 AM,84.4,78.3,82,30.01,7.0,Calm,Calm,-,N/A,,Overcast,0,2013-06-10 13:15:00
8:35 AM,82.9,79.0,88,30.02,5.0,Calm,Calm,-,0.04,Rain,Heavy Rain,0,2013-06-10 13:35:00
8:55 AM,81.0,74.7,81,30.02,4.0,Calm,Calm,-,0.09,Rain,Rain,0,2013-06-10 13:55:00
9:15 AM,82.2,77.0,84,30.03,10.0,Calm,Calm,-,0.01,Rain,Rain,0,2013-06-10 14:15:00
9:35 AM,79.9,73.6,81,30.04,7.0,South,12.7,16.1,0.01,Rain-Thunderstorm,Light Thunderstorms and Rain,180,2013-06-10 14:35:00
9:55 AM,77.7,68.2,72,30.04,2.5,South,9.2,34.5,0.09,Rain-Thunderstorm,Thunderstorms and Rain,170,2013-06-10 14:55:00
10:15 AM,77.9,72.5,83,30.03,10.0,NNE,4.6,-,N/A,,Mostly Cloudy,30,2013-06-10 15:15:00
10:35 AM,81.9,72.5,73,30.03,10.0,Calm,Calm,-,N/A,,Scattered Clouds,0,2013-06-10 15:35:00
10:55 AM,84.2,76.8,78,30.04,10.0,South,3.5,-,N/A,,Clear,170,2013-06-10 15:55:00
11:15 AM,85.8,76.8,74,30.04,10.0,South,6.9,-,N/A,,Clear,180,2013-06-10 16:15:00
11:35 AM,85.6,77.2,76,30.04,10.0,South,5.8,-,N/A,,Clear,190,2013-06-10 16:35:00
11:55 AM,87.3,77.7,73,30.05,7.0,South,8.1,-,N/A,,Clear,180,2013-06-10 16:55:00
12:15 PM,88.0,77.9,72,30.04,7.0,South,5.8,-,N/A,,Scattered Clouds,190,2013-06-10 17:15:00
12:35 PM,88.7,77.5,69,30.04,7.0,South,9.2,-,N/A,,Scattered Clouds,170,2013-06-10 17:35:00
12:55 PM,88.3,77.4,70,30.04,7.0,South,9.2,-,N/A,,Scattered Clouds,190,2013-06-10 17:55:00
1:15 PM,88.2,76.8,69,30.03,7.0,SSE,8.1,-,N/A,,Clear,160,2013-06-10 18:15:00
1:35 PM,87.3,76.8,71,30.03,10.0,South,8.1,-,N/A,,Scattered Clouds,170,2013-06-10 18:35:00
1:55 PM,88.0,77.0,70,30.02,7.0,South,8.1,-,N/A,,Clear,180,2013-06-10 18:55:00
2:15 PM,89.8,78.3,69,30.02,10.0,South,5.8,-,N/A,,Clear,180,2013-06-10 19:15:00
2:35 PM,89.1,77.0,67,30.02,7.0,South,5.8,-,N/A,,Scattered Clouds,170,2013-06-10 19:35:00
2:55 PM,89.8,74.7,61,30.02,7.0,SE,5.8,-,N/A,,Scattered Clouds,140,2013-06-10 19:55:00
3:15 PM,90.1,76.5,64,30.02,10.0,South,8.1,-,N/A,,Scattered Clouds,180,2013-06-10 20:15:00
3:35 PM,89.6,76.1,64,30.02,10.0,South,6.9,-,N/A,,Mostly Cloudy,190,2013-06-10 20:35:00
3:55 PM,88.3,77.7,71,30.01,10.0,SSE,6.9,-,N/A,,Mostly Cloudy,160,2013-06-10 20:55:00
4:15 PM,88.0,76.1,68,30.01,10.0,SSE,8.1,-,N/A,,Scattered Clouds,150,2013-06-10 21:15:00
4:35 PM,87.8,77.4,71,30.02,10.0,South,6.9,-,N/A,,Clear,190,2013-06-10 21:35:00
4:55 PM,87.8,77.4,71,30.01,7.0,South,8.1,-,N/A,,Scattered Clouds,180,2013-06-10 21:55:00
5:15 PM,87.1,77.2,72,30.02,10.0,South,6.9,-,N/A,,Scattered Clouds,190,2013-06-10 22:15:00
5:35 PM,86.4,77.0,74,30.01,10.0,South,8.1,-,N/A,,Clear,170,2013-06-10 22:35:00
5:55 PM,86.0,76.8,74,30.00,10.0,South,5.8,-,N/A,,Clear,170,2013-06-10 22:55:00
6:15 PM,85.8,77.0,75,29.99,10.0,South,8.1,-,N/A,,Clear,170,2013-06-10 23:15:00
6:35 PM,85.1,76.8,76,29.99,7.0,South,10.4,-,N/A,,Clear,170,2013-06-10 23:35:00
6:55 PM,84.6,76.5,77,30.00,10.0,South,8.1,-,N/A,,Clear,180,2013-06-10 23:55:00
7:15 PM,84.4,76.5,77,30.00,10.0,South,8.1,-,N/A,,Clear,170,2013-06-11 00:15:00
7:35 PM,83.7,76.5,79,30.01,10.0,South,6.9,-,N/A,,Clear,170,2013-06-11 00:35:00
7:55 PM,83.3,76.8,81,30.01,10.0,South,5.8,-,N/A,,Clear,170,2013-06-11 00:55:00
8:15 PM,82.4,77.0,84,30.02,10.0,Calm,Calm,-,N/A,,Clear,0,2013-06-11 01:15:00
8:35 PM,81.5,77.2,87,30.02,10.0,Calm,Calm,-,N/A,,Clear,0,2013-06-11 01:35:00
8:55 PM,80.8,77.2,89,30.02,7.0,Calm,Calm,-,N/A,,Scattered Clouds,0,2013-06-11 01:55:00
9:15 PM,80.8,77.0,88,30.02,7.0,SSE,4.6,-,N/A,,Scattered Clouds,150,2013-06-11 02:15:00
9:35 PM,79.5,77.0,92,30.02,7.0,Calm,Calm,-,N/A,,Clear,0,2013-06-11 02:35:00
9:55 PM,80.1,77.0,90,30.02,10.0,Calm,Calm,-,N/A,,Clear,0,2013-06-11 02:55:00
10:15 PM,79.9,77.0,91,30.03,7.0,Calm,Calm,-,N/A,,Clear,0,2013-06-11 03:15:00
10:35 PM,79.2,76.5,91,30.03,7.0,Calm,Calm,-,N/A,,Clear,0,2013-06-11 03:35:00
10:55 PM,78.6,76.3,92,30.03,7.0,Calm,Calm,-,N/A,,Clear,0,2013-06-11 03:55:00
11:15 PM,78.3,76.1,93,30.03,7.0,ESE,3.5,-,N/A,,Clear,120,2013-06-11 04:15:00
11:35 PM,78.1,76.1,94,30.03,7.0,ESE,3.5,-,N/A,,Clear,120,2013-06-11 04:35:00
11:55 PM,77.9,76.1,94,30.03,7.0,Calm,Calm,-,N/A,,Clear,0,2013-06-11 04:55:00